Regional Weather Roundup
Issued by NWS New Orleans/Baton Rouge, LA

Home | Current Version | Previous Version | Graphics & Text | Print | Product List | Glossary On
Versions: 1 2 3 4 5 6 7 8 9 10 11 12 13 14 15 16 17 18 19 20 21 22 23 24 25 26 27 28 29 30 31 32 33 34 35 36 37 38 39 40 41 42 43 44 45 46 47 48 49 50
844
ASUS44 KLIX 311601
RWRLIX
NEW ORLEANS REGIONAL WEATHER ROUNDUP
NATIONAL WEATHER SERVICE NEW ORLEANS LA
1000 AM CST SAT JAN 31 2015

NOTE: "FAIR" INDICATES FEW OR NO CLOUDS BELOW 12,000 FEET WITH NO
      SIGNIFICANT WEATHER AND/OR OBSTRUCTIONS TO VISIBILITY.
      SKY/WX - SKY CONDITION AND SIGNIFICANT WEATHER.
      TMP - AIR TEMPERATURE.     DP    - DEWPOINT TEMPERATURE.
      RH  - RELATIVE HUMIDITY.   PRES  - PRESSURE.
      HI  - HEAT INDEX.          WCI   - WIND CHILL INDEX.

*  THESE STATIONS ARE NOT NWS OR FAA STATIONS AND ARE NOT UNDER
   NWS QUALITY CONTROL.

LAZ038-040-048-061>063-065>067-069-311700-
SOUTHEAST LOUISIANA

CITY           SKY/WX    TMP DP  RH WIND       PRES   REMARKS
N.O. AUDUBON     N/A     58  44  60 MISG        N/A
N.O. INTL ARPT MOSUNNY   54  41  61 NE9       30.32R
N.O. LAKEFRONT SUNNY     54  40  59 E10       30.34R
N.O. DOWNTOWN* NOT AVBL
SLIDELL        SUNNY     51  34  52 E7        30.34R
BATON ROUGE    MOSUNNY   51  31  46 E10       30.31S
BOOTHVILLE     SUNNY     59  51  75 NE8       30.31R
BELLE CHASSE   MOSUNNY   59  42  53 E12       30.31R
BOGALUSA*        N/A     50  29  43 SE7       30.37S
GALLIANO*      NOT AVBL
NEW ROADS*     NOT AVBL
GONZALES*      NOT AVBL
HAMMOND*       NOT AVBL
HOUMA*         SUNNY     57  45  62 NE12      30.30S
PORT FOURCHON* SUNNY     61  52  72 E14G20    30.31S

$$

MSZ070-080>082-311700-
SOUTHERN MISSISSIPPI

CITY           SKY/WX    TMP DP  RH WIND       PRES   REMARKS
MCCOMB         SUNNY     49  26  41 SE13      30.34R
GULFPORT       SUNNY     50  32  50 E7        30.35S
BILOXI         SUNNY     51  32  48 E8        30.35R
PASCAGOULA     SUNNY     51  29  42 E8        30.35S
STENNIS ARPT*  SUNNY     52  30  43 E8        30.35S

$$

COASTAL OBSERVATIONS
LAKE AND NEARSHORE STATIONS

STATION/POSITION TIME  TEMP    WIND        PRES    WAVE
                       AIR SEA DIR/SP/G            HT/PER
                 (UTC) (F)     (DEG/KT/KT) (MB)    (FT/S)
PASCAGOULA       1520   49      70/ 12/ 19 1027.0
WAVELAND YACHT   1520   45      70/  8/ 10 1026.7
GRAND ISLE       1520   58 60   70/ 11/ 18 1025.8
SOUTHWEST PASS   1520   60 45  100/ 13/ 15 1025.6
NEW CANAL        1520   48 54   60/ 12/ 14 1027.0
SHELL BEACH      1520   53 54   70/ 16/ 18 1026.3

OFFSHORE STATIONS

STATION/POSITION TIME  TEMP    WIND        PRES    WAVE
                       AIR SEA DIR/SP/G            HT/PER
                 (UTC) (F)     (DEG/KT/KT) (MB)    (FT/S)
64 S DAUPHIN ISL 1527   60 69  110/ 16/ 19 1026.5    4/ 6

$$




USA.gov is the U.S. government's official web portal to all federal, state and local government web resources and services.